TimeCST,TemperatureF,Dew PointF,Humidity,Sea Level PressureIn,VisibilityMPH,Wind Direction,Wind SpeedMPH,Gust SpeedMPH,PrecipitationIn,Events,Conditions,WindDirDegrees,DateUTC
12:55 AM,-31.0,-9999,N/A,30.50,10.0,Calm,Calm,-,N/A,,Clear,0,2013-12-24 06:55:00
1:55 AM,-32.1,-9999,N/A,30.48,10.0,Calm,Calm,-,N/A,,Clear,0,2013-12-24 07:55:00
2:55 AM,-29.0,-35.0,73,30.48,10.0,Calm,Calm,-,N/A,,Clear,0,2013-12-24 08:55:00
3:55 AM,-25.1,-31.0,74,30.44,10.0,SE,5.8,-,N/A,,Clear,130,2013-12-24 09:55:00
4:55 AM,-25.1,-31.0,74,30.41,10.0,SE,5.8,-,N/A,,Clear,130,2013-12-24 10:55:00
5:55 AM,-24.0,-29.9,74,30.40,10.0,SE,5.8,-,N/A,,Clear,140,2013-12-24 11:55:00
6:55 AM,-23.1,-29.0,74,30.38,10.0,Calm,Calm,-,N/A,,Clear,0,2013-12-24 12:55:00
7:55 AM,-20.0,-27.0,70,30.35,10.0,SE,5.8,-,N/A,,Clear,130,2013-12-24 13:55:00
8:55 AM,-14.1,-20.0,75,30.35,10.0,SSE,4.6,-,N/A,,Clear,160,2013-12-24 14:55:00
9:55 AM,-6.0,-11.9,75,30.33,10.0,SSE,6.9,-,N/A,,Clear,160,2013-12-24 15:55:00
10:55 AM,-0.0,-11.9,57,30.28,10.0,SSE,9.2,-,N/A,,Clear,160,2013-12-24 16:55:00
11:55 AM,3.9,-9.9,53,30.25,10.0,Variable,6.9,-,N/A,,Overcast,0,2013-12-24 17:55:00
12:55 PM,7.0,-9.0,48,30.22,10.0,South,5.8,-,N/A,,Overcast,190,2013-12-24 18:55:00
1:50 PM,6.8,-7.6,52,30.06,2.5,South,12.7,24.2,0.00,Snow,Light Snow,180,2013-12-24 19:50:00
1:55 PM,7.0,-6.0,55,30.19,1.8,South,12.7,24.2,0.00,Snow,Light Snow,190,2013-12-24 19:55:00
2:26 PM,6.8,-0.4,72,30.03,0.8,South,6.9,-,0.01,Snow,Light Snow,180,2013-12-24 20:26:00
2:43 PM,6.8,-0.4,72,30.02,1.0,South,10.4,17.3,0.02,Snow,Light Snow,170,2013-12-24 20:43:00
2:55 PM,7.0,-0.0,73,30.15,1.0,Variable,5.8,-,0.02,Snow,Light Snow,0,2013-12-24 20:55:00
3:53 PM,6.8,1.4,79,30.02,3.0,South,6.9,-,0.02,Snow,Light Snow,180,2013-12-24 21:53:00
3:54 PM,7.0,1.0,77,30.15,3.0,South,8.1,-,0.02,Snow,Light Snow,190,2013-12-24 21:54:00
4:55 PM,8.1,1.0,73,30.14,10.0,South,11.5,17.3,0.00,,Overcast,190,2013-12-24 22:55:00
5:24 PM,8.6,1.4,73,30.01,9.0,SSW,11.5,18.4,N/A,,Overcast,200,2013-12-24 23:24:00
5:55 PM,8.1,1.0,73,30.14,5.0,SSW,9.2,18.4,N/A,,Haze,200,2013-12-24 23:55:00
6:55 PM,7.0,1.9,80,30.14,5.0,SSW,11.5,19.6,N/A,,Haze,200,2013-12-25 00:55:00
7:46 PM,6.8,3.2,85,30.00,2.5,SSW,9.2,-,0.00,Snow,Light Snow,200,2013-12-25 01:46:00
7:55 PM,7.0,3.0,84,30.12,2.5,SSW,5.8,-,0.00,Snow,Light Snow,200,2013-12-25 01:55:00
8:01 PM,6.8,1.4,79,30.00,3.0,Variable,6.9,-,0.00,Snow,Light Snow,0,2013-12-25 02:01:00
8:13 PM,6.8,1.4,79,30.00,2.5,SSW,9.2,-,0.00,Snow,Light Snow,200,2013-12-25 02:13:00
8:34 PM,6.8,1.4,79,30.00,3.0,SSW,6.9,-,0.00,Snow,Light Snow,200,2013-12-25 02:34:00
8:46 PM,6.8,1.4,79,29.99,2.5,South,8.1,16.1,0.00,Snow,Light Snow,190,2013-12-25 02:46:00
8:55 PM,6.1,1.9,83,30.11,2.5,SSW,10.4,-,0.00,Snow,Light Snow,200,2013-12-25 02:55:00
9:21 PM,6.8,1.4,79,29.98,3.0,SSW,9.2,-,0.00,Snow,Light Snow,200,2013-12-25 03:21:00
9:51 PM,6.8,1.4,79,29.98,3.0,SSW,6.9,-,0.00,Snow,Light Snow,200,2013-12-25 03:51:00
9:55 PM,6.1,1.9,83,30.09,3.0,SSW,8.1,-,0.00,Snow,Light Snow,200,2013-12-25 03:55:00
10:55 PM,6.1,1.9,83,30.06,6.0,SSW,8.1,-,0.00,Snow,Light Snow,200,2013-12-25 04:55:00
11:55 PM,7.0,1.9,80,30.05,3.0,SSW,8.1,-,0.00,Snow,Light Snow,210,2013-12-25 05:55:00